Theta_e
320 316 316 311 301 298 294 299 303 304 305 304 309 305 305 308 306 302 320 330 334 335 341 344 346 349 349 348 348 348 348 345 343 342 340 339 340 340 340 340 342 342 342 344 343 343 343 342 341
315 316 312 306 298 293 295 300 302 307 308 308 307 305 302 301 311 315 319 326 336 338 340 343 344 348 349 348 348 348 348 346 343 343 342 341 340 341 340 340 341 343 342 342 342 342 342 342 341
315 314 308 305 298 295 295 301 304 307 309 302 303 303 303 305 312 318 322 329 337 338 340 341 343 347 348 348 347 347 347 346 345 344 343 342 342 342 341 341 342 343 344 344 345 344 343 341 340
308 308 308 300 299 301 301 304 305 306 310 310 302 299 301 312 316 319 323 334 334 337 340 341 343 347 348 347 347 347 347 347 346 346 345 344 344 344 345 344 343 344 345 345 345 343 341 339 337
307 305 298 299 300 302 307 309 309 309 309 310 303 302 302 311 316 320 324 333 332 335 339 340 342 345 347 347 347 347 346 347 346 346 346 346 346 346 346 346 345 345 345 345 342 341 339 337 336
301 305 298 297 299 304 307 310 309 310 312 312 306 304 306 311 318 321 325 330 333 334 337 339 338 341 343 345 346 345 345 346 346 346 346 346 346 346 346 345 343 343 342 341 339 336 335 332 329
298 300 296 299 300 303 307 310 308 310 309 310 311 305 308 308 319 322 323 325 332 334 335 338 340 339 337 340 341 342 343 344 344 345 345 344 343 343 342 341 341 340 339 338 335 333 330 327 324
298 298 297 298 298 299 307 308 311 308 309 313 313 308 308 312 312 319 318 320 325 330 334 336 338 339 340 341 334 336 339 340 340 340 338 335 334 335 335 334 337 338 336 334 332 328 325 322 319
296 289 289 292 295 298 304 299 305 309 306 306 309 309 312 309 314 316 315 318 322 329 331 334 335 337 339 341 337 331 332 334 334 334 331 328 331 331 328 326 331 334 333 331 327 324 321 318 315
289 285 287 294 297 297 299 299 300 294 295 296 296 306 306 308 311 314 313 316 320 326 329 333 334 336 337 339 339 338 337 336 337 337 330 330 327 323 322 319 325 329 327 327 324 320 318 313 302
289 285 291 292 295 295 294 292 293 291 291 294 295 297 306 304 307 310 314 317 320 325 330 331 332 334 336 336 336 338 337 336 336 335 329 324 323 317 314 313 316 316 317 315 314 311 304 302 299
285 289 291 292 293 291 290 293 290 291 293 295 296 297 299 304 305 307 308 311 316 321 328 331 331 332 334 335 334 336 336 335 332 329 325 321 318 314 309 309 309 309 309 307 305 302 300 298 299
287 288 290 292 292 291 291 289 290 292 293 293 294 295 296 297 301 307 311 312 313 318 327 330 331 331 333 333 332 333 333 331 328 324 322 319 316 313 308 306 306 305 305 305 302 299 297 299 299
288 288 288 289 289 289 289 289 289 293 295 292 293 294 296 296 297 299 306 310 312 318 323 329 331 332 333 332 331 331 331 329 326 323 321 316 315 312 308 305 305 303 304 302 301 298 298 298 298
289 285 288 289 287 287 289 287 288 294 295 294 294 294 295 296 297 297 301 307 312 316 321 327 331 333 332 330 330 330 329 328 324 322 320 317 313 311 309 305 303 303 301 301 299 298 298 298 299
284 283 278 286 288 288 288 282 288 290 291 291 292 293 295 296 298 299 299 303 311 314 318 325 331 332 331 329 329 328 328 326 324 321 320 315 311 310 307 304 303 301 300 300 298 297 297 297 298
279 277 280 283 288 288 286 285 291 293 290 290 291 289 292 295 296 296 298 300 306 311 314 321 327 329 330 328 328 328 326 325 324 320 319 314 310 308 306 304 302 301 299 299 299 297 296 295 296
276 275 279 279 283 285 285 285 290 291 289 289 291 291 289 292 294 296 297 299 301 307 311 317 325 327 328 329 327 326 322 322 321 319 317 313 310 307 305 303 301 301 299 298 298 298 296 297 296
279 278 277 281 285 284 283 284 287 289 287 290 291 292 293 294 297 296 296 298 298 300 305 310 320 324 325 326 325 323 317 317 315 315 314 311 310 307 304 302 301 301 300 300 299 296 295 295 295
280 278 277 280 284 282 282 282 286 289 289 288 290 292 293 294 296 296 295 296 297 300 302 304 316 322 324 325 325 324 317 315 311 310 310 310 308 306 303 302 301 301 300 298 298 296 294 294 294
272 270 277 279 283 285 283 281 283 287 289 291 291 291 293 292 294 295 296 296 296 295 299 302 310 320 323 324 324 313 307 302 302 305 306 307 306 305 305 303 302 301 301 299 299 298 297 293 293
269 277 276 277 277 275 283 274 282 286 287 289 290 289 290 291 288 288 288 289 288 290 294 301 308 317 322 323 319 312 309 304 305 305 305 305 305 305 305 304 303 302 301 300 299 299 298 294 293
272 277 275 274 273 277 278 275 278 284 283 286 287 288 284 285 286 285 286 288 289 290 290 293 304 313 319 319 317 313 309 310 307 304 303 303 304 304 304 303 302 301 301 300 299 298 296 295 293
277 274 274 274 276 272 276 275 276 279 282 286 288 283 284 284 285 285 286 287 287 288 289 291 296 307 313 316 313 311 308 307 301 301 300 301 302 302 302 302 302 301 300 299 298 298 296 295 293
273 271 266 267 270 270 277 274 277 283 284 285 283 281 282 282 282 282 283 284 285 285 287 289 290 298 305 310 309 308 307 305 301 300 300 300 300 300 300 301 301 300 300 299 298 297 296 294 292
271 270 265 260 264 268 276 273 274 280 281 281 281 280 280 279 280 280 280 281 282 283 284 285 287 289 296 301 302 301 300 301 300 299 300 300 300 301 301 301 301 300 299 298 297 297 296 295 294
268 268 272 267 268 265 275 279 282 281 280 279 278 277 276 276 276 276 278 279 280 281 282 283 284 287 289 292 296 296 296 296 296 297 298 299 299 300 299 300 299 299 298 298 297 296 294 294 293
272 274 265 267 260 260 272 271 270 276 276 276 276 275 275 275 274 274 275 276 278 279 280 281 282 284 286 289 293 295 295 295 294 296 296 296 298 298 297 298 298 297 296 296 296 295 293 292 290
269 266 268 268 267 262 261 268 278 276 275 274 274 275 274 274 274 273 274 274 275 277 277 278 279 280 282 285 288 293 294 294 294 295 295 296 296 297 296 297 297 296 295 295 294 294 293 292 291
271 268 268 262 261 265 266 267 279 277 276 275 275 275 275 274 274 273 273 273 273 274 275 275 276 277 280 282 284 286 288 290 292 293 293 294 295 296 296 297 296 296 295 295 294 292 293 292 290
Wind_Speed
5 3 2 4 3 4 4 7 4 10 5 3 5 3 5 6 4 5 2 12 9 15 17 19 22 21 20 19 18 18 18 18 17 17 16 16 15 15 15 14 11 11 12 12 12 11 11 11 11
3 1 4 3 3 3 6 6 12 15 6 11 5 2 1 3 2 1 3 8 12 15 16 17 21 23 22 20 19 18 18 18 18 17 16 15 15 15 15 14 13 12 13 14 13 13 13 11 11
1 1 3 3 4 10 6 8 13 6 7 4 6 1 4 4 2 7 7 12 11 14 16 16 20 22 21 21 20 19 18 18 17 17 17 16 16 15 14 14 14 13 13 14 15 14 15 13 11
2 3 3 3 17 8 8 9 5 5 6 8 5 6 4 8 10 10 9 16 14 14 16 18 22 22 22 21 21 21 20 19 18 18 17 17 16 15 13 13 14 13 13 14 13 14 12 11 9
2 3 2 4 17 5 11 9 5 12 6 8 2 8 5 4 6 12 15 15 16 13 14 15 24 23 23 22 22 21 20 19 19 18 18 17 15 15 15 15 13 15 12 16 13 12 11 11 9
1 0 4 7 19 15 9 11 7 14 17 16 5 7 7 4 7 11 17 18 15 17 15 16 22 23 23 23 23 22 21 20 19 18 17 17 15 14 17 14 13 12 13 13 13 12 12 11 9
6 4 5 10 20 21 16 8 10 15 13 20 4 5 6 4 14 9 14 12 14 14 15 15 17 17 18 22 22 22 22 21 20 18 17 15 16 17 15 11 13 12 12 13 13 13 12 10 9
3 3 4 7 16 26 17 12 8 7 10 5 4 6 8 9 8 6 5 7 7 7 11 15 17 16 15 14 16 17 19 19 17 16 15 15 13 14 14 11 12 14 14 14 14 12 11 10 9
1 2 8 12 17 16 5 5 5 5 8 6 5 3 7 4 7 8 4 4 6 7 9 10 14 14 15 14 12 13 14 17 15 13 15 13 7 8 8 8 11 13 13 13 13 12 10 10 8
5 5 11 7 13 20 14 6 6 4 8 16 9 5 3 3 4 11 9 12 12 12 10 11 12 15 14 11 12 12 10 9 10 11 11 8 7 7 7 7 10 11 12 13 12 11 10 6 2
6 10 9 9 12 7 9 6 5 6 15 15 13 7 3 1 6 6 10 12 19 18 12 14 13 13 15 13 9 8 7 6 7 12 11 8 6 7 4 3 3 4 7 4 6 5 3 3 3
8 10 16 10 11 6 10 14 9 14 17 7 12 12 9 12 12 11 10 9 7 9 17 17 17 16 16 11 10 10 8 8 7 9 11 9 5 8 5 4 5 4 4 6 5 3 3 4 4
11 10 10 13 11 10 8 15 25 31 15 13 14 16 18 15 14 15 16 14 9 11 15 15 16 16 15 15 11 11 10 9 10 9 10 9 8 8 7 5 4 4 4 4 4 5 5 5 5
5 6 11 8 11 7 11 14 8 26 14 13 17 22 24 23 19 13 12 17 16 17 16 16 18 18 17 15 16 12 10 11 10 10 11 12 9 9 8 6 6 5 5 4 5 5 5 4 4
7 15 17 16 5 9 5 22 32 25 21 23 19 21 22 22 17 19 17 17 15 17 20 18 21 18 17 17 15 13 12 12 11 11 14 14 12 12 11 8 7 6 5 7 4 4 4 4 3
10 8 8 1 7 6 11 35 10 10 15 26 22 19 21 23 22 18 13 13 16 16 17 18 16 19 19 17 15 12 13 12 11 10 11 14 13 14 11 9 9 7 6 6 5 4 4 4 4
3 15 18 24 7 6 11 31 13 15 11 18 17 11 14 18 15 10 12 14 15 16 16 17 18 21 21 18 14 14 14 12 12 11 11 15 14 14 12 10 8 9 7 6 7 3 4 4 3
6 8 11 19 0 7 17 31 27 16 8 16 17 14 10 12 17 9 11 12 13 13 14 17 18 21 20 14 12 10 9 11 10 11 11 15 12 14 12 8 9 9 7 6 6 7 2 3 4
20 21 27 33 20 15 23 24 29 15 11 19 20 18 17 15 16 11 11 10 11 11 14 16 19 20 15 14 14 12 13 11 9 10 14 16 14 15 14 9 10 10 11 11 10 5 6 2 4
19 25 32 30 18 14 28 27 31 27 22 12 18 21 19 18 17 14 12 13 13 17 16 15 20 20 19 15 15 13 12 10 10 9 12 14 15 14 13 13 12 12 9 8 10 6 4 3 7
22 17 25 28 26 20 20 27 26 25 18 18 15 14 17 14 20 21 17 15 14 12 13 15 18 20 19 20 12 5 5 4 5 9 9 12 15 16 17 15 13 13 12 11 12 11 12 5 5
19 10 26 26 22 21 2 21 22 21 19 16 12 10 14 13 12 12 13 13 11 11 10 14 17 20 21 21 17 19 17 14 12 12 10 12 16 16 16 14 14 14 11 13 13 12 11 6 8
13 20 22 27 22 22 27 17 20 15 26 16 11 11 8 11 12 15 15 15 14 15 15 9 10 18 20 20 20 17 17 12 9 10 12 12 12 14 15 15 15 14 10 10 12 11 8 8 7
18 22 25 13 11 17 20 14 18 24 22 23 10 9 10 12 14 16 16 16 17 17 18 16 9 11 17 19 20 22 20 15 10 12 11 11 9 10 13 14 13 13 12 12 11 10 12 9 4
22 21 8 5 7 14 10 9 18 12 15 11 9 14 15 15 17 18 20 20 20 22 21 18 19 7 6 13 16 18 16 16 16 15 12 13 10 9 13 16 15 13 14 13 12 12 12 11 8
14 9 6 8 9 11 14 8 5 15 18 19 18 15 16 19 17 18 19 18 19 21 21 21 21 19 12 2 7 7 7 7 8 11 10 10 11 11 13 14 14 14 12 11 11 9 9 10 8
13 8 14 8 18 9 6 1 11 20 19 19 18 18 19 18 17 19 19 18 19 20 21 20 20 19 18 13 1 4 6 7 7 9 9 9 8 9 11 14 13 12 11 12 13 10 10 9 7
8 12 8 6 8 10 9 10 13 23 18 18 20 19 18 16 17 18 18 19 18 17 17 18 19 18 17 16 10 1 5 6 6 7 8 8 8 8 10 12 12 11 11 12 12 9 7 10 7
7 9 5 6 5 6 10 4 12 16 16 17 17 17 17 17 17 16 16 17 17 17 18 18 19 20 19 18 16 10 5 1 7 7 8 9 8 9 11 13 13 13 13 13 12 11 10 12 9
9 9 5 5 6 9 8 6 16 15 13 13 13 13 15 16 15 15 16 17 18 19 19 18 18 18 18 17 16 15 14 11 5 3 7 7 9 9 11 12 13 13 14 13 14 12 12 13 12
Wind_Direction
324 332 97 42 41 66 247 253 257 277 309 236 292 249 173 174 194 213 325 181 142 158 171 173 175 174 173 171 168 167 167 167 168 165 162 161 159 158 156 157 158 159 152 139 139 133 128 126 122
347 357 52 89 110 239 255 238 247 255 240 304 266 214 124 249 176 188 117 196 162 160 169 177 178 176 175 174 173 172 170 171 170 168 167 167 167 167 165 164 166 168 161 154 148 143 134 127 130
290 218 108 153 207 223 232 234 240 261 268 268 295 307 177 205 271 182 217 152 153 162 170 178 181 180 179 176 175 174 175 174 174 173 173 174 174 176 175 174 174 176 176 173 160 158 147 132 127
70 20 4 152 235 225 219 240 231 291 292 250 215 273 281 205 164 189 156 153 155 167 174 176 182 184 183 181 180 177 178 177 176 177 180 180 179 180 182 183 185 186 186 208 163 144 135 140 138
52 84 216 215 253 255 237 250 273 282 257 258 193 253 239 244 218 159 150 160 165 168 177 176 182 185 184 184 183 182 181 181 183 182 184 188 189 186 189 193 194 195 171 143 146 145 143 146 147
180 166 195 219 254 252 255 243 252 263 277 275 211 232 243 273 162 194 162 170 172 168 175 180 184 185 186 186 186 184 184 185 186 186 192 188 198 194 191 177 148 161 150 146 155 152 151 151 154
168 175 222 235 261 268 256 214 229 250 261 268 236 216 239 243 217 188 177 162 167 169 170 177 185 187 187 187 186 186 186 187 189 189 189 185 170 156 148 161 162 173 167 163 161 160 158 162 163
173 157 220 217 247 273 259 239 228 213 264 275 200 250 253 243 171 123 111 124 139 172 175 179 181 186 190 190 186 188 188 188 190 181 171 165 165 138 147 164 173 178 176 171 167 166 170 171 169
278 221 220 226 228 244 276 295 273 271 279 288 261 270 277 334 126 119 142 155 152 174 185 180 180 189 192 192 190 187 189 188 174 171 167 165 169 137 155 164 173 176 174 175 173 174 175 173 168
168 203 219 224 234 261 277 261 278 294 301 291 293 256 315 8 242 166 181 191 197 183 184 184 191 184 188 197 193 198 195 195 186 176 170 173 159 142 158 168 175 172 164 171 178 177 174 145 149
210 228 227 245 245 254 280 257 223 255 263 239 267 264 235 280 253 247 211 199 199 195 181 185 185 189 184 190 194 199 193 192 186 177 172 157 161 140 150 161 173 154 147 149 165 167 136 176 179
255 236 240 258 249 259 245 294 250 223 243 249 254 258 236 219 226 222 227 231 217 193 198 190 187 180 187 186 186 192 196 187 179 182 169 158 161 153 154 171 170 163 151 150 146 146 172 193 216
238 251 246 244 257 248 280 265 271 269 257 240 248 264 264 250 233 224 225 228 213 208 209 196 185 187 187 187 185 183 189 179 176 180 173 165 166 164 157 167 161 161 149 151 161 169 183 194 189
294 275 272 268 257 247 251 266 249 265 260 239 246 252 255 254 245 233 219 224 214 208 204 194 193 191 185 189 189 186 188 182 177 181 177 171 170 162 169 166 173 169 168 159 162 182 184 187 174
305 303 294 261 222 233 201 269 245 255 272 258 242 243 250 252 248 238 233 225 218 213 207 194 196 189 186 191 189 190 189 184 186 184 178 174 173 171 168 169 180 182 171 163 169 183 175 167 177
316 296 294 227 220 264 153 258 254 236 249 264 254 247 251 255 252 249 241 226 221 221 213 201 195 190 190 189 189 189 191 189 187 187 178 179 177 172 167 175 185 174 169 167 165 168 167 186 173
195 270 268 286 224 254 187 264 270 248 218 252 265 243 247 263 263 243 220 223 225 221 211 199 195 194 195 193 189 190 189 189 189 185 182 179 175 174 169 182 179 167 169 174 173 168 153 170 178
287 281 277 270 294 240 242 255 260 263 300 255 262 267 250 258 268 255 238 228 230 218 212 203 195 197 195 193 187 190 188 192 190 188 185 176 178 178 173 176 165 166 169 171 172 163 151 159 168
303 289 281 275 281 291 277 269 270 274 253 267 262 264 262 254 260 259 252 240 227 224 215 204 198 199 188 192 192 189 192 191 189 190 182 177 179 182 177 170 170 177 182 181 172 145 157 147 151
306 289 276 289 292 253 270 263 271 267 267 248 265 272 269 267 270 268 252 244 235 232 225 205 204 195 191 193 197 202 191 197 188 181 181 183 178 175 175 175 184 183 174 161 174 153 145 142 185
323 298 300 285 289 274 294 284 268 270 265 267 268 272 277 260 262 261 263 261 258 240 226 213 200 198 196 194 186 152 127 95 160 187 182 182 176 179 185 184 181 181 179 184 183 179 172 154 201
315 332 313 301 302 266 200 273 268 280 279 287 278 275 269 311 351 1 359 3 351 329 288 227 199 194 194 187 181 179 182 183 198 191 185 183 185 187 186 182 183 185 186 187 187 183 186 150 176
294 298 294 285 274 274 250 261 280 276 278 270 286 291 33 9 3 1 356 354 347 347 339 292 224 199 190 187 186 185 190 195 180 177 176 186 190 188 186 185 182 184 187 188 185 181 190 188 160
307 307 290 249 234 244 253 233 258 270 268 270 227 71 33 20 12 10 2 360 357 356 356 350 315 210 196 186 188 192 191 182 168 169 175 185 185 183 185 182 184 187 188 185 184 186 185 186 172
355 348 328 320 248 250 204 209 255 276 352 332 30 43 33 26 17 10 9 2 360 360 359 357 356 336 221 192 193 195 191 186 176 172 177 177 183 188 188 182 189 192 192 190 183 183 187 185 188
324 336 316 299 301 306 291 211 60 39 35 45 50 43 34 26 16 12 6 4 0 358 359 1 1 2 353 221 190 178 163 178 175 175 175 185 189 190 187 194 192 192 190 184 182 192 193 185 186
319 356 289 269 256 252 233 280 54 20 28 33 32 32 28 22 12 8 6 4 1 2 359 1 360 359 2 349 9 150 151 149 160 169 174 181 179 184 183 187 191 188 184 183 183 188 190 180 178
44 346 352 330 317 319 315 62 9 359 17 21 25 23 18 16 14 8 5 2 0 1 358 2 5 3 357 358 349 267 171 150 150 162 169 169 176 175 171 180 184 181 181 181 184 189 180 177 182
360 355 1 287 305 324 331 72 34 34 19 15 16 12 12 11 11 8 2 2 0 3 2 5 6 3 4 2 3 9 354 273 161 170 177 176 173 174 175 184 182 180 183 184 185 189 180 188 183
5 311 325 335 315 291 255 256 36 45 28 17 13 12 8 6 7 9 7 3 4 3 3 7 7 6 4 1 7 14 19 16 356 270 178 179 183 183 180 185 186 186 188 185 188 184 183 185 183